Starlink 32416

operational
NORAD ID: 61589 Int'l Des: 2024-187 Owner: SPXS Country: US Constellation: starlink
LEOCIRCULAR

Über Starlink 32416

Beschreibung wird geladen...

Live-Position

3D-Globus wird geladen...

Nächste Überflüge

Höhenverlauf

Altitude vs Time

uPlot chart will show altitude changes over time

Zweizeiliger Elementsatz

1 61589U 24187R 25352.66667824 .00056850 00000-0 19190-2 0 9999
2 61589 53.1590 65.9344 0001306 66.8052 21.0798 15.30164309 5893
Epoch: 18. Dez. 2025 • Age: 6 hours

Aktueller Status

Höhe 474.8 km
Geschwindigkeit 7.63 km/s
Subsatellitenpunkt 12.66°N, 17.3°E
Startdatum 18. Okt. 2024
Alter 1.1 years
Typ internet

Technische Details

Klassifizierung Payload
Masse 730.00 kg
Trockenmasse 700.00 kg
Gesamtmasse 730.00 kg
Länge 0.30 m
Durchmesser 4.10 m
Spannweite 29.00 m
Form Box + pan
Hersteller SPXS
Bus-Typ Starlink V2M
Phasenstatus In Orbit
Besitzer/Staat SPXS/US

Große Konstellationen

Loading constellations...